• en France
  • Liste des pays
  • À 7 jours
  • Température de l'eau
  • Carte satellitaire
  • Carte météo
  • Widgets météo
  • user-avatar
    Se connecter

    Météo par heure à Békéscsaba

    Ce jour, 20 Septembre, Jeudi

    Heure Température Précipitation Vent Pression Humidité
    00:00 +20°C° 0 mm 2 m/s 758 mmHg 53%
    01:00 +20°C° 0 mm 2 m/s 758 mmHg 54%
    02:00 +19°C° 0 mm 2 m/s 758 mmHg 55%
    03:00 +19°C° 0 mm 2 m/s 758 mmHg 55%
    04:00 +19°C° 0 mm 1 m/s 758 mmHg 56%
    05:00 +20°C° 0 mm 1 m/s 758 mmHg 54%
    06:00 +21°C° 0 mm 1 m/s 758 mmHg 52%
    07:00 +22°C° 0 mm 1 m/s 758 mmHg 50%
    08:00 +24°C° 0 mm 1 m/s 758 mmHg 44%
    09:00 +26°C° 0 mm 1 m/s 758 mmHg 38%
    10:00 +28°C° 0 mm 2 m/s 758 mmHg 32%
    11:00 +29°C° 0 mm 1 m/s 758 mmHg 31%
    12:00 +30°C° 0 mm 1 m/s 758 mmHg 29%
    13:00 +31°C° 0 mm 1 m/s 757 mmHg 28%
    14:00 +31°C° 0 mm 1 m/s 757 mmHg 28%
    15:00 +31°C° 0 mm 1 m/s 757 mmHg 28%
    16:00 +30°C° 0 mm 1 m/s 756 mmHg 27%
    17:00 +29°C° 0 mm 1 m/s 756 mmHg 31%
    18:00 +27°C° 0 mm 1 m/s 756 mmHg 36%
    19:00 +25°C° 0 mm 2 m/s 756 mmHg 40%
    20:00 +24°C° 0 mm 2 m/s 757 mmHg 43%
    21:00 +23°C° 0 mm 2 m/s 757 mmHg 46%
    22:00 +23°C° 0 mm 2 m/s 757 mmHg 49%
    23:00 +21°C° 0 mm 2 m/s 757 mmHg 51%

    Demain, 21 Septembre, Vendredi

    Heure Température Précipitation Vent Pression Humidité
    00:00 +21°C° 0 mm 2 m/s 757 mmHg 53%
    01:00 +20°C° 0 mm 2 m/s 757 mmHg 55%
    02:00 +20°C° 0 mm 2 m/s 756 mmHg 55%
    03:00 +19°C° 0 mm 2 m/s 756 mmHg 56%
    04:00 +19°C° 0 mm 2 m/s 756 mmHg 56%
    05:00 +19°C° 0 mm 2 m/s 756 mmHg 53%
    06:00 +20°C° 0 mm 2 m/s 756 mmHg 50%
    07:00 +21°C° 0 mm 2 m/s 756 mmHg 47%
    08:00 +24°C° 0 mm 2 m/s 756 mmHg 41%
    09:00 +26°C° 0 mm 2 m/s 756 mmHg 34%
    10:00 +29°C° 0 mm 2 m/s 756 mmHg 28%
    11:00 +30°C° 0 mm 3 m/s 756 mmHg 26%
    12:00 +30°C° 0 mm 3 m/s 755 mmHg 24%
    13:00 +31°C° 0 mm 3 m/s 755 mmHg 22%
    14:00 +31°C° 0 mm 3 m/s 755 mmHg 22%
    15:00 +31°C° 0 mm 3 m/s 754 mmHg 22%
    16:00 +31°C° 0 mm 3 m/s 754 mmHg 21%
    17:00 +29°C° 0 mm 2 m/s 754 mmHg 24%
    18:00 +27°C° 0 mm 2 m/s 754 mmHg 28%
    19:00 +25°C° 0 mm 2 m/s 755 mmHg 31%
    20:00 +24°C° 0 mm 2 m/s 755 mmHg 34%
    21:00 +23°C° 0 mm 2 m/s 755 mmHg 37%
    22:00 +22°C° 0 mm 3 m/s 755 mmHg 40%
    23:00 +21°C° 0 mm 3 m/s 755 mmHg 43%

    Après-demain, 22 Septembre, Samedi

    Heure Température Précipitation Vent Pression Humidité
    00:00 +20°C° 0 mm 3 m/s 755 mmHg 45%
    01:00 +20°C° 0 mm 3 m/s 755 mmHg 47%
    02:00 +19°C° 0 mm 3 m/s 755 mmHg 49%
    03:00 +19°C° 0 mm 2 m/s 755 mmHg 50%
    04:00 +18°C° 0 mm 2 m/s 755 mmHg 51%
    05:00 +19°C° 0 mm 2 m/s 755 mmHg 49%
    06:00 +20°C° 0 mm 3 m/s 755 mmHg 47%
    07:00 +21°C° 0 mm 3 m/s 755 mmHg 45%
    08:00 +24°C° 0 mm 3 m/s 755 mmHg 40%
    09:00 +26°C° 0 mm 3 m/s 755 mmHg 36%
    10:00 +28°C° 0 mm 3 m/s 756 mmHg 31%
    11:00 +29°C° 0 mm 3 m/s 755 mmHg 30%
    12:00 +32°C° 0 mm 4 m/s 755 mmHg 28%
    13:00 +33°C° 0 mm 4 m/s 755 mmHg 27%
    14:00 +30°C° 0 mm 6 m/s 755 mmHg 29%
    15:00 +29°C° 0 mm 7 m/s 755 mmHg 32%
    16:00 +27°C° 0 mm 8 m/s 755 mmHg 34%
    17:00 +26°C° 0 mm 7 m/s 756 mmHg 36%
    18:00 +23°C° 0 mm 7 m/s 756 mmHg 38%
    19:00 +21°C° 0 mm 6 m/s 757 mmHg 39%
    20:00 +20°C° 0 mm 6 m/s 757 mmHg 39%
    21:00 +20°C° 0 mm 5 m/s 758 mmHg 39%
    22:00 +19°C° 0 mm 4 m/s 758 mmHg 39%
    23:00 +19°C° 0 mm 4 m/s 759 mmHg 39%

    23 Septembre, Dimanche

    Heure Température Précipitation Vent Pression Humidité
    00:00 +18°C° 0 mm 4 m/s 759 mmHg 40%
    01:00 +17°C° 0 mm 4 m/s 759 mmHg 40%
    02:00 +17°C° 0 mm 4 m/s 759 mmHg 43%
    03:00 +17°C° 0 mm 3 m/s 759 mmHg 45%
    04:00 +17°C° 0 mm 2 m/s 760 mmHg 48%
    05:00 +17°C° 0 mm 2 m/s 760 mmHg 49%
    06:00 +17°C° 0 mm 2 m/s 760 mmHg 50%
    07:00 +18°C° 0 mm 1 m/s 760 mmHg 51%
    08:00 +19°C° 0 mm 1 m/s 760 mmHg 46%
    09:00 +20°C° 0 mm 1 m/s 760 mmHg 42%
    10:00 +21°C° 0 mm 1 m/s 760 mmHg 38%
    11:00 +22°C° 0 mm 1 m/s 759 mmHg 35%
    12:00 +23°C° 0 mm 1 m/s 759 mmHg 32%
    13:00 +24°C° 0 mm 1 m/s 758 mmHg 30%
    14:00 +24°C° 0 mm 1 m/s 758 mmHg 30%
    15:00 +24°C° 0 mm 1 m/s 757 mmHg 30%
    16:00 +25°C° 0 mm 1 m/s 756 mmHg 30%
    17:00 +23°C° 0 mm 1 m/s 756 mmHg 32%
    18:00 +21°C° 0 mm 2 m/s 756 mmHg 35%
    19:00 +20°C° 0 mm 2 m/s 755 mmHg 37%
    20:00 +19°C° 0 mm 3 m/s 755 mmHg 38%
    21:00 +19°C° 0 mm 3 m/s 754 mmHg 38%
    22:00 +19°C° 0 mm 3 m/s 754 mmHg 39%
    23:00 +19°C° 0 mm 4 m/s 753 mmHg 39%

    24 Septembre, Lundi

    Heure Température Précipitation Vent Pression Humidité
    00:00 +19°C° 0 mm 4 m/s 752 mmHg 39%
    01:00 +19°C° 0 mm 5 m/s 751 mmHg 39%
    02:00 +19°C° 0 mm 5 m/s 750 mmHg 42%
    03:00 +20°C° 0 mm 6 m/s 749 mmHg 44%
    04:00 +20°C° 0 mm 6 m/s 748 mmHg 46%
    05:00 +20°C° 0.4 mm 7 m/s 748 mmHg 49%
    06:00 +21°C° 0.4 mm 8 m/s 747 mmHg 51%
    07:00 +22°C° 0.4 mm 8 m/s 747 mmHg 53%
    08:00 +18°C° 1.6 mm 8 m/s 748 mmHg 59%
    09:00 +16°C° 1.6 mm 8 m/s 749 mmHg 66%
    10:00 +13°C° 1.6 mm 8 m/s 750 mmHg 72%
    11:00 +14°C° 0.7 mm 7 m/s 751 mmHg 72%
    12:00 +14°C° 0.7 mm 7 m/s 752 mmHg 72%
    13:00 +14°C° 0.7 mm 7 m/s 753 mmHg 71%
    14:00 +15°C° 0.2 mm 7 m/s 753 mmHg 64%
    15:00 +16°C° 0.2 mm 6 m/s 753 mmHg 56%
    16:00 +17°C° 0.2 mm 6 m/s 754 mmHg 48%
    17:00 +16°C° 0 mm 6 m/s 754 mmHg 50%
    18:00 +14°C° 0 mm 5 m/s 755 mmHg 52%
    19:00 +13°C° 0 mm 4 m/s 755 mmHg 54%
    20:00 +13°C° 0 mm 5 m/s 756 mmHg 54%
    21:00 +13°C° 0 mm 5 m/s 756 mmHg 55%
    22:00 +11°C° 0 mm 6 m/s 757 mmHg 55%
    23:00 +11°C° 0 mm 6 m/s 757 mmHg 56%

    25 Septembre, Mardi

    Heure Température Précipitation Vent Pression Humidité
    00:00 +10°C° 0 mm 6 m/s 757 mmHg 57%
    01:00 +10°C° 0 mm 6 m/s 757 mmHg 58%
    02:00 +10°C° 0 mm 5 m/s 758 mmHg 59%
    03:00 +9°C° 0 mm 5 m/s 758 mmHg 60%
    04:00 +9°C° 0 mm 5 m/s 758 mmHg 61%
    05:00 +9°C° 0 mm 6 m/s 759 mmHg 59%
    06:00 +10°C° 0 mm 6 m/s 759 mmHg 58%
    07:00 +10°C° 0 mm 7 m/s 759 mmHg 57%
    08:00 +11°C° 0 mm 7 m/s 759 mmHg 53%
    09:00 +12°C° 0 mm 7 m/s 760 mmHg 49%
    10:00 +14°C° 0 mm 7 m/s 760 mmHg 45%
    11:00 +15°C° 0.1 mm 7 m/s 760 mmHg 41%
    12:00 +15°C° 0.1 mm 7 m/s 760 mmHg 38%
    13:00 +16°C° 0.1 mm 7 m/s 759 mmHg 34%
    14:00 +16°C° 0 mm 7 m/s 759 mmHg 36%
    15:00 +15°C° 0 mm 7 m/s 759 mmHg 37%
    16:00 +15°C° 0 mm 6 m/s 759 mmHg 39%
    17:00 +14°C° 0 mm 5 m/s 760 mmHg 43%
    18:00 +13°C° 0 mm 4 m/s 760 mmHg 47%
    19:00 +12°C° 0 mm 3 m/s 761 mmHg 51%
    20:00 +11°C° 0.1 mm 3 m/s 761 mmHg 54%
    21:00 +10°C° 0.1 mm 3 m/s 762 mmHg 57%
    22:00 +9°C° 0.1 mm 3 m/s 762 mmHg 59%
    23:00 +9°C° 0 mm 3 m/s 762 mmHg 60%
    Voir plus